Estación Meteorológica de la Universidad de Murcia
Estación Meteorológica de la Universidad de Murcia
Universidad de Murcia
 

Temperatura y Humedad del sueloTemperatura y Humedad del suelo

 

Temperatura del suelo máxima: 14,7 ºC a las 13:31:00 del día 20/01/2019
Temperatura del suelo mínima: 5,6 ºC a las 19:49:00 del día 20/01/2019
Humedad del suelo máxima: 0 % a las 00:00:00 del día 20/01/2019
Humedad del suelo mínima: 999,9 % a las 00:00:00 del día 20/01/2019

||Temperatura del suelo máxima últimos meses|| ---- ||Temperatura del suelo mínima últimos meses||

----||Humedad del suelo máxima últimos meses|| ---- ||Humedad del suelo mínima últimos meses||


Temperatura del suelo máxima

  • 1 - 14,7 ºC del día 20/01/2019
  • 2 - 18 ºC del día 19/01/2019
  • 3 - 16,6 ºC del día 18/01/2019
  • 4 - 16,4 ºC del día 17/01/2019
  • 5 - 18,1 ºC del día 16/01/2019
  • 6 - 19,7 ºC del día 15/01/2019
  • 7 - 22 ºC del día 14/01/2019
  • 8 - 19,6 ºC del día 13/01/2019
  • 9 - 16,2 ºC del día 12/01/2019
  • 10 - 13,7 ºC del día 11/01/2019
  • 11 - 15,1 ºC del día 10/01/2019
  • 12 - 19,3 ºC del día 09/01/2019
  • 13 - 17,8 ºC del día 08/01/2019
  • 14 - 18,5 ºC del día 07/01/2019
  • 15 - 20 ºC del día 06/01/2019
  • 16 - 18,8 ºC del día 05/01/2019
  • 17 - 17,1 ºC del día 04/01/2019
  • 18 - 16,6 ºC del día 03/01/2019
  • 19 - 20,7 ºC del día 02/01/2019
  • 20 - 20,9 ºC del día 01/01/2019
  • 21 - 20,4 ºC del día 31/12/2018
  • 22 - 18,1 ºC del día 30/12/2018
  • 23 - 17,5 ºC del día 29/12/2018
  • 24 - 17,6 ºC del día 28/12/2018
  • 25 - 18 ºC del día 27/12/2018
  • 26 - 18,7 ºC del día 26/12/2018
  • 27 - 18,9 ºC del día 25/12/2018
  • 28 - 21,5 ºC del día 24/12/2018
  • 29 - 20,6 ºC del día 23/12/2018
  • 30 - 20,8 ºC del día 22/12/2018
  • 31 - 18,9 ºC del día 21/12/2018
  • 32 - 18,2 ºC del día 20/12/2018
  • 33 - 20 ºC del día 19/12/2018
  • 34 - 17,5 ºC del día 18/12/2018
  • 35 - 19,2 ºC del día 17/12/2018
  • 36 - 22,8 ºC del día 16/12/2018
  • 37 - 20,5 ºC del día 15/12/2018
  • 38 - 16,4 ºC del día 14/12/2018
  • 39 - 15,5 ºC del día 13/12/2018
  • 40 - 20,8 ºC del día 12/12/2018
  • 41 - 18,6 ºC del día 11/12/2018
  • 42 - 21,1 ºC del día 10/12/2018
  • 43 - 24,6 ºC del día 09/12/2018
  • 44 - 21,9 ºC del día 08/12/2018
  • 45 - 21,7 ºC del día 07/12/2018
  • 46 - 25,4 ºC del día 06/12/2018
  • 47 - 24,4 ºC del día 05/12/2018
  • 48 - 24,4 ºC del día 04/12/2018
  • 49 - 24,3 ºC del día 03/12/2018
  • 50 - 22,4 ºC del día 02/12/2018
  • 51 - 19,7 ºC del día 01/12/2018
  • 52 - 20,6 ºC del día 30/11/2018
  • 53 - 21,8 ºC del día 29/11/2018
  • 54 - 21,9 ºC del día 28/11/2018
  • 55 - 20,4 ºC del día 27/11/2018
  • 56 - 19,5 ºC del día 26/11/2018
  • 57 - 22,6 ºC del día 25/11/2018
  • 58 - 19,1 ºC del día 24/11/2018
  • 59 - 20,1 ºC del día 23/11/2018
  • 60 - 17,2 ºC del día 22/11/2018

||Volver al inicio de la página||


Temperatura del suelo mínima

  • 1 - 5,6 ºC del día 20/01/2019
  • 2 - 3,5 ºC del día 19/01/2019
  • 3 - 2 ºC del día 18/01/2019
  • 4 - 4,1 ºC del día 17/01/2019
  • 5 - 4,4 ºC del día 16/01/2019
  • 6 - 4,6 ºC del día 15/01/2019
  • 7 - 2,1 ºC del día 14/01/2019
  • 8 - -0,5 ºC del día 13/01/2019
  • 9 - -2,4 ºC del día 12/01/2019
  • 10 - -1,6 ºC del día 11/01/2019
  • 11 - 1,3 ºC del día 10/01/2019
  • 12 - 3,7 ºC del día 09/01/2019
  • 13 - 3,1 ºC del día 08/01/2019
  • 14 - 1,2 ºC del día 07/01/2019
  • 15 - 2,7 ºC del día 06/01/2019
  • 16 - 0,800000000000001 ºC del día 05/01/2019
  • 17 - 2,2 ºC del día 04/01/2019
  • 18 - 3,4 ºC del día 03/01/2019
  • 19 - 1,5 ºC del día 02/01/2019
  • 20 - 1,1 ºC del día 01/01/2019
  • 21 - 2,4 ºC del día 31/12/2018
  • 22 - 4,8 ºC del día 30/12/2018
  • 23 - 8,9 ºC del día 29/12/2018
  • 24 - 6,8 ºC del día 28/12/2018
  • 25 - 5,3 ºC del día 27/12/2018
  • 26 - 5,1 ºC del día 26/12/2018
  • 27 - 5 ºC del día 25/12/2018
  • 28 - 5 ºC del día 24/12/2018
  • 29 - 4,6 ºC del día 23/12/2018
  • 30 - 5,7 ºC del día 22/12/2018
  • 31 - 4 ºC del día 21/12/2018
  • 32 - 7,5 ºC del día 20/12/2018
  • 33 - 6,2 ºC del día 19/12/2018
  • 34 - 4,2 ºC del día 18/12/2018
  • 35 - 4,7 ºC del día 17/12/2018
  • 36 - 6,1 ºC del día 16/12/2018
  • 37 - 3,9 ºC del día 15/12/2018
  • 38 - 8,9 ºC del día 14/12/2018
  • 39 - 8,6 ºC del día 13/12/2018
  • 40 - 8,2 ºC del día 12/12/2018
  • 41 - 5,8 ºC del día 11/12/2018
  • 42 - 5,6 ºC del día 10/12/2018
  • 43 - 6,9 ºC del día 09/12/2018
  • 44 - 8,5 ºC del día 08/12/2018
  • 45 - 5,8 ºC del día 07/12/2018
  • 46 - 7,9 ºC del día 06/12/2018
  • 47 - 6,6 ºC del día 05/12/2018
  • 48 - 7,4 ºC del día 04/12/2018
  • 49 - 6,6 ºC del día 03/12/2018
  • 50 - 6,8 ºC del día 02/12/2018
  • 51 - 5,3 ºC del día 01/12/2018
  • 52 - 5,8 ºC del día 30/11/2018
  • 53 - 3,9 ºC del día 29/11/2018
  • 54 - 3,8 ºC del día 28/11/2018
  • 55 - 7,5 ºC del día 27/11/2018
  • 56 - 8,5 ºC del día 26/11/2018
  • 57 - 5,4 ºC del día 25/11/2018
  • 58 - 6,3 ºC del día 24/11/2018
  • 59 - 9,4 ºC del día 23/11/2018
  • 60 - 10,3 ºC del día 22/11/2018

||Volver al inicio de la página||


Humedad del suelo máxima

  • 1 - 0 % del día 20/01/2019
  • 2 - 0 % del día 19/01/2019
  • 3 - 0 % del día 18/01/2019
  • 4 - 0 % del día 17/01/2019
  • 5 - 0 % del día 16/01/2019
  • 6 - 0 % del día 15/01/2019
  • 7 - 0 % del día 14/01/2019
  • 8 - 0 % del día 13/01/2019
  • 9 - 0 % del día 12/01/2019
  • 10 - 0 % del día 11/01/2019
  • 11 - 0 % del día 10/01/2019
  • 12 - 0 % del día 09/01/2019
  • 13 - 0 % del día 08/01/2019
  • 14 - 0 % del día 07/01/2019
  • 15 - 0 % del día 06/01/2019
  • 16 - 0 % del día 05/01/2019
  • 17 - 0 % del día 04/01/2019
  • 18 - 0 % del día 03/01/2019
  • 19 - 0 % del día 02/01/2019
  • 20 - 0 % del día 01/01/2019
  • 21 - 0 % del día 31/12/2018
  • 22 - 0 % del día 30/12/2018
  • 23 - 0 % del día 29/12/2018
  • 24 - 0 % del día 28/12/2018
  • 25 - 0 % del día 27/12/2018
  • 26 - 0 % del día 26/12/2018
  • 27 - 0 % del día 25/12/2018
  • 28 - 0 % del día 24/12/2018
  • 29 - 0 % del día 23/12/2018
  • 30 - 0 % del día 22/12/2018
  • 31 - 0 % del día 21/12/2018
  • 32 - 0 % del día 20/12/2018
  • 33 - 0 % del día 19/12/2018
  • 34 - 0 % del día 18/12/2018
  • 35 - 0 % del día 17/12/2018
  • 36 - 0 % del día 16/12/2018
  • 37 - 0 % del día 15/12/2018
  • 38 - 0 % del día 14/12/2018
  • 39 - 0 % del día 13/12/2018
  • 40 - 35,8 % del día 12/12/2018
  • 41 - 0 % del día 11/12/2018
  • 42 - 0 % del día 10/12/2018
  • 43 - 36,2 % del día 09/12/2018
  • 44 - 0 % del día 08/12/2018
  • 45 - 0 % del día 07/12/2018
  • 46 - 0 % del día 06/12/2018
  • 47 - 0 % del día 05/12/2018
  • 48 - 0 % del día 04/12/2018
  • 49 - 0 % del día 03/12/2018
  • 50 - 0 % del día 02/12/2018
  • 51 - 0 % del día 01/12/2018
  • 52 - 0 % del día 30/11/2018
  • 53 - 0 % del día 29/11/2018
  • 54 - 38,3 % del día 28/11/2018
  • 55 - 38,8 % del día 27/11/2018
  • 56 - 40,2 % del día 26/11/2018
  • 57 - 40,8 % del día 25/11/2018
  • 58 - 41,7 % del día 24/11/2018
  • 59 - 43,3 % del día 23/11/2018
  • 60 - 43,6 % del día 22/11/2018

||Volver al inicio de la página||


Humedad del suelo mínima

  • 1 - 999,9 % del día 20/01/2019
  • 2 - 999,9 % del día 19/01/2019
  • 3 - 999,9 % del día 18/01/2019
  • 4 - 999,9 % del día 17/01/2019
  • 5 - 999,9 % del día 16/01/2019
  • 6 - 999,9 % del día 15/01/2019
  • 7 - 999,9 % del día 14/01/2019
  • 8 - 999,9 % del día 13/01/2019
  • 9 - 999,9 % del día 12/01/2019
  • 10 - 999,9 % del día 11/01/2019
  • 11 - 999,9 % del día 10/01/2019
  • 12 - 999,9 % del día 09/01/2019
  • 13 - 999,9 % del día 08/01/2019
  • 14 - 999,9 % del día 07/01/2019
  • 15 - 999,9 % del día 06/01/2019
  • 16 - 999,9 % del día 05/01/2019
  • 17 - 999,9 % del día 04/01/2019
  • 18 - 999,9 % del día 03/01/2019
  • 19 - 999,9 % del día 02/01/2019
  • 20 - 999,9 % del día 01/01/2019
  • 21 - 999,9 % del día 31/12/2018
  • 22 - 999,9 % del día 30/12/2018
  • 23 - 999,9 % del día 29/12/2018
  • 24 - 999,9 % del día 28/12/2018
  • 25 - 999,9 % del día 27/12/2018
  • 26 - 999,9 % del día 26/12/2018
  • 27 - 999,9 % del día 25/12/2018
  • 28 - 999,9 % del día 24/12/2018
  • 29 - 999,9 % del día 23/12/2018
  • 30 - 999,9 % del día 22/12/2018
  • 31 - 999,9 % del día 21/12/2018
  • 32 - 999,9 % del día 20/12/2018
  • 33 - 999,9 % del día 19/12/2018
  • 34 - 999,9 % del día 18/12/2018
  • 35 - 999,9 % del día 17/12/2018
  • 36 - 999,9 % del día 16/12/2018
  • 37 - 999,9 % del día 15/12/2018
  • 38 - 999,9 % del día 14/12/2018
  • 39 - 999,9 % del día 13/12/2018
  • 40 - 34,4 % del día 12/12/2018
  • 41 - 999,9 % del día 11/12/2018
  • 42 - 999,9 % del día 10/12/2018
  • 43 - 34,9 % del día 09/12/2018
  • 44 - 999,9 % del día 08/12/2018
  • 45 - 999,9 % del día 07/12/2018
  • 46 - 999,9 % del día 06/12/2018
  • 47 - 999,9 % del día 05/12/2018
  • 48 - 999,9 % del día 04/12/2018
  • 49 - 999,9 % del día 03/12/2018
  • 50 - 999,9 % del día 02/12/2018
  • 51 - 999,9 % del día 01/12/2018
  • 52 - 999,9 % del día 30/11/2018
  • 53 - 999,9 % del día 29/11/2018
  • 54 - 37,6 % del día 28/11/2018
  • 55 - 37,3 % del día 27/11/2018
  • 56 - 37 % del día 26/11/2018
  • 57 - 37,6 % del día 25/11/2018
  • 58 - 38,1 % del día 24/11/2018
  • 59 - 39,3 % del día 23/11/2018
  • 60 - 40,3 % del día 22/11/2018

 

|| Temperatura Ambiente|| Humedad relativa|| Velocidad y dirección del viento|| Precipitación|| Radiación Solar Global y PAR|| Presión atmosférica|| Más información|| Volver a la página principal|| Volver al inicio de la página||


Estación Meteorológica de la Universidad de Murcia
http://estacion.um.es/
Informacion actualizada a: 21/01/2019 a las 20:46:00